Regional Weather Roundup
Issued by NWS Charleston, SC

Home | Current Version | Previous Version | Text Only | Print | Product List | Glossary On
Versions: 1 2 3 4 5 6 7 8 9 10 11 12 13 14 15 16 17 18 19 20 21 22 23 24 25 26 27 28 29 30 31 32 33 34 35 36 37 38 39 40 41 42 43 44 45 46 47 48 49 50
000
ASUS42 KCHS 262311
RWRCHS

REGIONAL WEATHER ROUNDUP
NATIONAL WEATHER SERVICE CHARLESTON SC
600 PM EST THU FEB 26 2015

NOTE: "FAIR" INDICATES FEW OR NO CLOUDS BELOW 12,000 FEET WITH NO
SIGNIFICANT WEATHER AND/OR OBSTRUCTIONS TO VISIBILITY.

NOT ALL STATIONS ARE QUALITY CONTROLLED BY THE NATIONAL
WEATHER SERVICE. USE DATA WITH CAUTION...ESPECIALLY
DEWPOINT OBSERVATIONS.

SCZ027-030-031-034>040-042>050-270000-
...SOUTHEAST SOUTH CAROLINA...

CITY           SKY/WX    TMP DP  RH WIND       PRES   REMARKS
N CHARLESTON   CLOUDY    41  36  82 N9        30.02R
WATERFRONT PRK   N/A     43 N/A N/A N10         N/A
MOUNT PLEASANT LGT RAIN  43  36  75 N5        30.02R
PINOPOLIS        N/A     43  36  75 N9        29.94R
MONCKS CORNER  CLOUDY    43  36  75 N3        30.02R
SUMMERVILLE    NOT AVBL
BEAUFORT MCAS  CLOUDY    46  38  73 N9        30.01R
BEAUFORT ARPT  CLOUDY    46  41  81 N9        30.01R
HILTON HEAD IS CLOUDY    48  39  71 N8        30.01R
WALTERBORO     CLOUDY    45  39  81 CALM      30.03R
ALLENDALE      CLOUDY    45  37  76 CALM      30.01R

...SOUTHERN MIDLANDS AND PEE DEE...

CITY           SKY/WX    TMP DP  RH WIND       PRES   REMARKS
GEORGETOWN     NOT AVBL
KINGSTREE      NOT AVBL
ORANGEBURG     CLOUDY    43  34  70 N7        30.02R
BARNWELL       MOCLDY    46  37  71 CALM      30.02R
AIKEN          CLOUDY    45  37  76 W5        30.03R
MANNING        CLOUDY    43  36  75 N3        30.03R
COLUMBIA       CLOUDY    44  35  70 NE3       30.02R
SUMTER         CLOUDY    41  34  77 N5        30.01R
FLORENCE       CLOUDY    40  33  76 N6        30.03R WCI  36
MYRTLE BEACH   CLOUDY    41  34  75 N10       30.03R
N MYRTLE BEACH CLOUDY    40  34  79 N8        30.00R WCI  34

$$

GAZ063-065-086>088-099>101-113>116-118-119-134>141-150-270000-
...SOUTHEAST GEORGIA...

CITY           SKY/WX    TMP DP  RH WIND       PRES   REMARKS
SAVANNAH ARPT  CLOUDY    48  38  68 NW10      30.00R
HUNTER AAF     CLOUDY    49  39  69 NW7       29.99R
FORT STEWART   CLOUDY    48  39  72 W5        29.99R
STATESBORO     CLOUDY    46  39  78 N3        30.01R
SYLVANIA       CLOUDY    46  40  82 N5        30.02R
CLAXTON        CLOUDY    46  39  76 N5        30.02R

...CSRA...CENTRAL AND FAR SOUTHEAST GEORGIA...

CITY           SKY/WX    TMP DP  RH WIND       PRES   REMARKS
THOMSON        CLOUDY    46  42  85 CALM      30.06R
AUGUSTA-BUSH   CLOUDY    46  36  68 NW7       30.02R
AUGUSTA-DANIEL CLOUDY    47  37  68 NW5       30.02R
SWAINSBORO     CLOUDY    46  34  61 NE3       30.02R
VIDALIA        CLOUDY    46  41  81 CALM      30.01R
EASTMAN        CLOUDY    49  41  75 CALM      30.03R
HAZLEHURST     CLOUDY    48  41  77 N3        30.01R
ALMA           CLOUDY    47  37  68 NW9       30.01R
WAYCROSS       CLOUDY    51  42  73 N6        30.01R
JESUP          CLOUDY    50  41  71 N6        30.01R
BAXLEY         CLOUDY    48  41  76 N5        30.01R
BRUNSWICK      CLOUDY    50  39  66 NW6       30.00R
SAINT SIMONS   CLOUDY    49  39  68 NW7       29.99R

$$

SCZ027-028-034-036>038-045-046-048>050-GAZ119-141-270000-
...LAKE AND SUPPLEMENTAL COASTAL OBSERVATIONS...

STATION/POSITION TIME  TEMP    WIND        PRES    WAVE   SWELL
                       AIR SEA DIR/SP/G            HT/PER HT/PER/DIR
                 (UTC) (F)     (DEG/KT/KT) (MB)    (FT/S) (FT/S/D)
UPR LAKE MARION  NOT AVBL
WINYAH BAY       2145   40     330/  6     1013.0
LAKE MURRAY      2200   43      CALM  /  2 1014.9R
ACE BASIN NERRS  NOT AVBL
FORT PULASKI     2200   49 49  330/  9/ 11 1015.3R
SAPELO ISLAND    2200   49     330/  8     1014.0S

$$

ANZ835-935-AMZ111-154-330-350-352-354-370-450-454-472-270000-
...C-MAN AND BUOY OBSERVATIONS...

STATION/POSITION TIME  TEMP    WIND        PRES    WAVE   SWELL
                       AIR SEA DIR/SP/G            HT/PER HT/PER/DIR
                 (UTC) (F)     (DEG/KT/KT) (MB)    (FT/S) (FT/S/D)
BUOY 41004       2250   45 65  360/ 14/ 19 1015.5R   5/10   5/10
BUOY 41008       2250   48 53  360/ 12/ 17 1015.4R   2/ 7   2/130/ 7
FOLLY BEACH CMAN 2300   42     360/  9/ 12 1017.0R
CAPERS NEARSHORE NOT AVBL
FRIPP NEARSHORE  2200   46      30/ 14/ 17 1014.9R


STATION/POSITION TIME  TEMP    WIND        PRES    WAVE   SWELL
                       AIR SEA DIR/SP/G            HT/PER HT/PER/DIR
                 (UTC) (F)     (DEG/KT/KT) (MB)    (FT/S) (FT/S/D)
5E ST. MARYS GA  2221      54                N/A     3/13   2/110/13
FRYING PAN BUOY  2250   43 58  350/ 16/ 19 1015.5R   8/ 9   7/170/ 9
BUOY 41025       NOT AVBL
CAPE LOOKOUT NC  2300   37     340/ 13/ 16 1014.8R
BUOY 41002       2250   64 70  300/ 17/ 23 1011.9R  14/ 9  10/210/ 9
BUOY 41010       2220   67 74  300/ 12/ 14 1013.1R
ST AUGUSTINE FL  2300   52      50/ 14/ 15 1015.2R


$$


USA.gov is the U.S. government's official web portal to all federal, state and local government web resources and services.